CW3467 Weather Reports


Display with metric or nautical units.
time (UTC)temp
F
wind
direction
speed
MPH
gust
MPH
rain 1hr
in
rain 24hr
in
rain mn
in
humidity
%
barometer
mb
20260906141003 101 258 2.0 4.0 0.00 0.00 0.00 21 1022.7
20260906140503 101 249 2.0 7.0 0.00 0.00 0.00 21 1022.7
20260906140004 100 228 2.0 7.0 0.00 0.00 0.00 20 1022.7
20260906135503 100 190 1.0 6.0 0.00 0.00 0.00 21 1023.0
20260906135003 99 195 1.0 4.0 0.00 0.00 0.00 21 1023.1
20260906134504 99 155 1.0 3.0 0.00 0.00 0.00 22 1023.1
20260906134004 98 209 1.0 2.0 0.00 0.00 0.00 23 1023.1
20260906133503 98 245 2.0 4.0 0.00 0.00 0.00 24 1023.1
20260906133004 98 280 2.0 7.0 0.00 0.00 0.00 23 1023.2
20260906132504 99 305 2.0 7.0 0.00 0.00 0.00 23 1023.2
20260906132004 99 270 2.0 6.0 0.00 0.00 0.00 22 1023.3
20260906131524 99 276 2.0 8.0 0.00 0.00 0.00 24 1023.2
20260906131025 99 284 3.0 8.0 0.00 0.00 0.00 23 1023.2
20260906130504 98 287 3.0 8.0 0.00 0.00 0.00 22 1023.3
20260906130004 98 289 3.0 9.0 0.00 0.00 0.00 23 1023.3
20260906125503 100 295 3.0 10.0 0.00 0.00 0.00 21 1023.4
20260906125003 99 312 2.0 10.0 0.00 0.00 0.00 23 1023.6
20260906124503 100 273 2.0 7.0 0.00 0.00 0.00 21 1023.5
20260906124004 100 274 2.0 7.0 0.00 0.00 0.00 23 1023.6
20260906123504 99 289 2.0 7.0 0.00 0.00 0.00 21 1023.7
20260906123004 99 281 2.0 7.0 0.00 0.00 0.00 23 1023.7
20260906122524 98 322 2.0 6.0 0.00 0.00 0.00 23 1023.7
20260906122003 99 66 1.0 3.0 0.00 0.00 0.00 23 1023.8
20260906121525 98 293 2.0 10.0 0.00 0.00 0.00 24 1023.7
20260906121003 98 299 3.0 10.0 0.00 0.00 0.00 25 1023.9
20260906120504 97 287 3.0 8.0 0.00 0.00 0.00 25 1023.8
20260906120004 98 281 3.0 9.0 0.00 0.00 0.00 25 1023.8
20260906115503 96 281 2.0 9.0 0.00 0.00 0.00 29 1024.0
20260906115004 98 238 1.0 6.0 0.00 0.00 0.00 26 1023.9
20260906114503 96 267 1.0 6.0 0.00 0.00 0.00 29 1023.9
20260906114025 96 263 1.0 6.0 0.00 0.00 0.00 29 1024.2
20260906113503 95 114 1.0 4.0 0.00 0.00 0.00 29 1024.1
20260906113003 94 274 1.0 4.0 0.00 0.00 0.00 32 1024.2
20260906112504 94 257 1.0 3.0 0.00 0.00 0.00 31 1024.0
20260906112004 95 237 1.0 2.0 0.00 0.00 0.00 32 1024.2
20260906111503 93 243 1.0 4.0 0.00 0.00 0.00 35 1024.2
20260906111003 92 256 1.0 4.0 0.00 0.00 0.00 35 1024.4
20260906110503 92 264 1.0 3.0 0.00 0.00 0.00 36 1024.4
20260906110024 91 252 1.0 3.0 0.00 0.00 0.00 37 1024.6
20260906105504 90 243 1.0 3.0 0.00 0.00 0.00 37 1024.2
20260906105024 91 266 1.0 4.0 0.00 0.00 0.00 37 1024.6
20260906104503 89 264 1.0 4.0 0.00 0.00 0.00 38 1024.6
20260906104004 89 247 1.0 3.0 0.00 0.00 0.00 37 1024.8
20260906103503 88 227 1.0 2.0 0.00 0.00 0.00 39 1024.5
20260906103003 88 252 1.0 6.0 0.00 0.00 0.00 38 1024.8
20260906102504 88 280 1.0 6.0 0.00 0.00 0.00 39 1024.9
20260906102004 87 268 1.0 6.0 0.00 0.00 0.00 40 1024.8
20260906101525 86 258 1.0 3.0 0.00 0.00 0.00 41 1024.9
20260906101004 85 260 2.0 4.0 0.00 0.00 0.00 41 1024.9
20260906100504 86 254 1.0 4.0 0.00 0.00 0.00 39 1024.9
20260906100004 86 249 1.0 4.0 0.00 0.00 0.00 41 1025.0
20260906095525 85 242 1.0 4.0 0.00 0.00 0.00 42 1025.0
20260906095004 85 239 1.0 3.0 0.00 0.00 0.00 41 1024.9
20260906094504 85 264 1.0 4.0 0.00 0.00 0.00 42 1025.2
20260906094003 84 271 0.0 4.0 0.00 0.00 0.00 42 1025.2
20260906093503 84 263 0.0 3.0 0.00 0.00 0.00 41 1025.2
20260906093024 84 261 1.0 3.0 0.00 0.00 0.00 44 1025.2
20260906092503 83 247 1.0 3.0 0.00 0.00 0.00 45 1025.2
20260906092003 83 250 1.0 3.0 0.00 0.00 0.00 46 1025.3
20260906091503 82 258 1.0 3.0 0.00 0.00 0.00 47 1025.3
20260906091004 81 256 1.0 3.0 0.00 0.00 0.00 46 1025.3
20260906090504 81 248 1.0 3.0 0.00 0.00 0.00 46 1025.3
20260906090004 81 238 1.0 2.0 0.00 0.00 0.00 46 1025.3
20260906085503 81 244 1.0 2.0 0.00 0.00 0.00 46 1025.3
20260906085003 80 238 1.0 2.0 0.00 0.00 0.00 47 1025.3
20260906084503 78 238 0.0 2.0 0.00 0.00 0.00 50 1025.4
20260906084003 79 238 0.0 2.0 0.00 0.00 0.00 47 1025.3
20260906083525 78 231 0.0 3.0 0.00 0.00 0.00 49 1025.5
20260906083003 77 236 1.0 3.0 0.00 0.00 0.00 51 1025.3
20260906082503 77 248 1.0 2.0 0.00 0.00 0.00 52 1025.5
20260906082004 77 247 0.0 2.0 0.00 0.00 0.00 52 1025.4
20260906081503 77 238 0.0 2.0 0.00 0.00 0.00 50 1025.3
20260906081003 76 259 1.0 3.0 0.00 0.00 0.00 53 1025.5
20260906080524 75 253 1.0 3.0 0.00 0.00 0.00 55 1025.4
20260906080024 75 241 1.0 2.0 0.00 0.00 0.00 53 1025.4
20260906075524 74 240 1.0 2.0 0.00 0.00 0.00 54 1025.4
20260906075004 75 237 1.0 1.0 0.00 0.00 0.00 55 1025.4
20260906074525 74 238 1.0 1.0 0.00 0.00 0.00 55 1025.5
20260906074003 74 240 0.0 1.0 0.00 0.00 0.00 56 1025.7
20260906073004 72 232 0.0 1.0 0.00 0.00 0.00 57 1025.6
20260906072504 72 235 0.0 1.0 0.00 0.00 0.00 59 1025.4
20260906072004 72 231 0.0 1.0 0.00 0.00 0.00 59 1025.3
20260906071504 71 228 0.0 1.0 0.00 0.00 0.00 59 1025.4
20260906071004 71 222 0.0 1.0 0.00 0.00 0.00 58 1025.4
20260906070504 71 223 0.0 1.0 0.00 0.00 0.00 60 1025.4
20260906070004 71 226 1.0 2.0 0.00 0.00 0.00 58 1025.4
20260906065504 70 226 1.0 2.0 0.00 0.00 0.00 58 1025.5
20260906065004 70 223 1.0 2.0 0.00 0.00 0.00 59 1025.3
20260906064504 70 223 0.0 2.0 0.00 0.00 0.00 60 1025.5
20260906064025 69 0 0.0 0.0 0.00 0.00 0.00 60 1025.3
20260906063504 69 0 0.0 0.0 0.00 0.00 0.00 60 1025.4
20260906063004 69 0 0.0 0.0 0.00 0.00 0.00 60 1025.3
20260906062504 69 0 0.0 0.0 0.00 0.00 0.00 59 1025.4
20260906062004 69 222 0.0 1.0 0.00 0.00 0.00 60 1025.2
20260906061504 69 221 0.0 1.0 0.00 0.00 0.00 60 1025.2
20260906061004 69 221 0.0 1.0 0.00 0.00 0.00 59 1025.1
20260906060504 69 218 0.0 1.0 0.00 0.00 0.00 58 1025.0
20260906060004 69 218 0.0 1.0 0.00 0.00 0.00 59 1025.1
20260906055504 69 217 0.0 1.0 0.00 0.00 0.00 59 1025.1
20260906055004 69 217 0.0 1.0 0.00 0.00 0.00 58 1025.2
20260906054504 69 219 0.0 1.0 0.00 0.00 0.00 59 1025.0
20260906054004 69 220 0.0 1.0 0.00 0.00 0.00 59 1025.2
20260906053525 69 220 0.0 1.0 0.00 0.00 0.00 60 1025.0
20260906053025 69 221 0.0 1.0 0.00 0.00 0.00 60 1024.8
20260906052525 69 0 0.0 0.0 0.00 0.00 0.00 59 1024.9
20260906052004 69 0 0.0 0.0 0.00 0.00 0.00 59 1025.0
20260906051504 69 211 0.0 1.0 0.00 0.00 0.00 59 1024.9
20260906051004 69 216 0.0 1.0 0.00 0.00 0.00 58 1024.9
20260906050504 69 219 0.0 1.0 0.00 0.00 0.00 58 1024.8
20260906050004 69 222 0.0 1.0 0.00 0.00 0.00 58 1024.7
20260906045504 69 218 0.0 1.0 0.00 0.00 0.00 58 1024.9
20260906045004 70 219 1.0 1.0 0.00 0.00 0.00 58 1024.6
20260906044504 69 222 0.0 1.0 0.00 0.00 0.00 58 1024.7
20260906044004 69 225 0.0 1.0 0.00 0.00 0.00 59 1024.7
20260906043504 69 225 0.0 1.0 0.00 0.00 0.00 58 1024.7
20260906043004 70 222 0.0 1.0 0.00 0.00 0.00 58 1024.9
20260906042504 70 220 0.0 1.0 0.00 0.00 0.00 58 1024.8
20260906042004 70 0 0.0 0.0 0.00 0.00 0.00 58 1024.8
20260906041504 70 0 0.0 0.0 0.00 0.00 0.00 58 1024.7
20260906041025 70 216 0.0 1.0 0.00 0.00 0.00 57 1024.8
20260906040504 70 219 1.0 2.0 0.00 0.00 0.00 56 1024.7
20260906040025 70 220 1.0 2.0 0.00 0.00 0.00 57 1024.8
20260906035504 70 221 1.0 2.0 0.00 0.00 0.00 57 1024.8
20260906035004 70 221 1.0 1.0 0.00 0.00 0.00 56 1024.9
20260906034504 70 220 1.0 1.0 0.00 0.00 0.00 56 1025.0
20260906034004 70 220 0.0 1.0 0.00 0.00 0.00 57 1024.9
20260906033504 70 221 0.0 1.0 0.00 0.00 0.00 57 1025.0
20260906033025 70 224 0.0 1.0 0.00 0.00 0.00 57 1025.0
20260906032504 71 222 0.0 1.0 0.00 0.00 0.00 56 1025.0
20260906032004 71 223 0.0 1.0 0.00 0.00 0.00 56 1025.1
20260906031504 71 228 0.0 1.0 0.00 0.00 0.00 56 1025.0
20260906031025 71 228 0.0 1.0 0.00 0.00 0.00 55 1025.1
20260906030525 71 222 0.0 1.0 0.00 0.00 0.00 55 1025.0
20260906030004 71 221 1.0 2.0 0.00 0.00 0.00 55 1025.0
20260906025504 71 223 0.0 2.0 0.00 0.00 0.00 55 1025.1
20260906025004 72 222 0.0 1.0 0.00 0.00 0.00 55 1025.3
20260906024525 72 220 0.0 1.0 0.00 0.00 0.00 54 1025.0
20260906024004 72 218 0.0 1.0 0.00 0.00 0.00 54 1025.1
20260906023504 72 218 0.0 1.0 0.00 0.00 0.00 54 1024.9
20260906023004 72 220 0.0 1.0 0.00 0.00 0.00 55 1025.0
20260906022525 72 219 0.0 1.0 0.00 0.00 0.00 53 1025.2
20260906022004 72 228 0.0 1.0 0.00 0.00 0.00 53 1025.0
20260906021504 72 220 0.0 1.0 0.00 0.00 0.00 54 1025.2
20260906021004 72 212 0.0 1.0 0.00 0.00 0.00 53 1025.2
20260906020504 73 209 0.0 1.0 0.00 0.00 0.00 53 1025.2
20260906020004 73 210 0.0 1.0 0.00 0.00 0.00 53 1025.2
20260906015504 73 219 0.0 1.0 0.00 0.00 0.00 52 1025.0
20260906015004 72 223 0.0 1.0 0.00 0.00 0.00 53 1025.3
20260906014504 72 220 0.0 2.0 0.00 0.00 0.00 53 1025.2
20260906014004 72 220 0.0 2.0 0.00 0.00 0.00 53 1025.3
20260906013504 72 221 1.0 2.0 0.00 0.00 0.00 53 1025.3
20260906013004 73 220 1.0 2.0 0.00 0.00 0.00 53 1025.1
20260906012504 73 227 1.0 2.0 0.00 0.00 0.00 53 1025.3
20260906012004 73 234 1.0 2.0 0.00 0.00 0.00 53 1025.3
20260906011504 75 224 1.0 2.0 0.00 0.00 0.00 51 1025.3
20260906011004 75 222 1.0 2.0 0.00 0.00 0.00 49 1025.1
20260906010504 74 221 1.0 3.0 0.00 0.00 0.00 51 1025.2
20260906010004 74 219 2.0 3.0 0.00 0.00 0.00 51 1025.3
20260906005504 74 219 1.0 2.0 0.00 0.00 0.00 51 1025.4
20260906005004 74 221 1.0 2.0 0.00 0.00 0.00 51 1025.3
20260906004504 74 222 1.0 2.0 0.00 0.00 0.00 51 1025.4
20260906004004 74 222 1.0 2.0 0.00 0.00 0.00 51 1025.4
20260906003525 74 228 0.0 1.0 0.00 0.00 0.00 52 1025.5
20260906003004 74 223 0.0 1.0 0.00 0.00 0.00 52 1025.4
20260906002504 74 219 0.0 1.0 0.00 0.00 0.00 51 1025.3
20260906002004 74 225 0.0 1.0 0.00 0.00 0.00 51 1025.3
20260906001504 74 225 0.0 1.0 0.00 0.00 0.00 51 1025.4
20260906001004 74 223 0.0 1.0 0.00 0.00 0.00 51 1025.4
20260906000504 75 0 0.0 0.0 0.00 0.00 0.00 51 1025.3
20260906000004 75 219 0.0 2.0 0.00 0.00 0.00 50 1025.4
20260905235504 75 219 1.0 2.0 0.00 0.00 0.00 50 1025.3
20260905235004 75 220 1.0 2.0 0.00 0.00 0.00 50 1025.3
20260905234504 75 220 0.0 2.0 0.00 0.00 0.00 50 1025.3
20260905234004 75 220 0.0 1.0 0.00 0.00 0.00 50 1025.3
20260905233504 75 216 0.0 1.0 0.00 0.00 0.00 50 1025.3
20260905233004 76 220 1.0 2.0 0.00 0.00 0.00 50 1025.5
20260905232504 76 219 1.0 2.0 0.00 0.00 0.00 49 1025.2
20260905232004 76 218 1.0 2.0 0.00 0.00 0.00 49 1025.3
20260905231504 76 220 1.0 1.0 0.00 0.00 0.00 50 1025.3
20260905231004 76 219 1.0 1.0 0.00 0.00 0.00 49 1025.5
20260905230504 76 218 0.0 2.0 0.00 0.00 0.00 50 1025.3
20260905230004 76 220 0.0 2.0 0.00 0.00 0.00 50 1025.5
20260905225504 76 219 0.0 1.0 0.00 0.00 0.00 49 1025.2
20260905225004 76 213 0.0 1.0 0.00 0.00 0.00 48 1025.1
20260905224504 77 220 0.0 1.0 0.00 0.00 0.00 49 1025.3
20260905224004 77 211 0.0 1.0 0.00 0.00 0.00 48 1025.3
20260905223525 78 175 0.0 2.0 0.00 0.00 0.00 47 1025.1
20260905223004 78 178 1.0 2.0 0.00 0.00 0.00 46 1025.3
20260905222504 78 192 0.0 1.0 0.00 0.00 0.00 46 1025.2
20260905222004 78 214 0.0 1.0 0.00 0.00 0.00 46 1025.2
20260905221504 79 217 0.0 2.0 0.00 0.00 0.00 46 1025.2
20260905221004 79 218 1.0 2.0 0.00 0.00 0.00 45 1025.0
20260905220504 79 219 1.0 2.0 0.00 0.00 0.00 45 1025.2
20260905220025 79 222 0.0 1.0 0.00 0.00 0.00 46 1025.2
20260905215504 79 227 0.0 2.0 0.00 0.00 0.00 45 1025.2
20260905215004 80 227 0.0 2.0 0.00 0.00 0.00 45 1025.0
20260905214504 80 225 0.0 1.0 0.00 0.00 0.00 44 1025.0
20260905214004 80 222 0.0 1.0 0.00 0.00 0.00 44 1025.1
20260905213504 80 210 0.0 1.0 0.00 0.00 0.00 44 1025.1
20260905213004 81 216 0.0 1.0 0.00 0.00 0.00 42 1025.0
20260905212504 81 221 0.0 1.0 0.00 0.00 0.00 41 1025.0
20260905212004 81 216 0.0 1.0 0.00 0.00 0.00 42 1024.9
20260905211504 82 217 0.0 1.0 0.00 0.00 0.00 42 1025.0
20260905211025 81 213 0.0 2.0 0.00 0.00 0.00 42 1024.9
20260905210504 82 215 0.0 2.0 0.00 0.00 0.00 43 1024.8
20260905210004 82 219 1.0 2.0 0.00 0.00 0.00 42 1024.9
20260905205504 82 217 1.0 2.0 0.00 0.00 0.00 42 1024.8
20260905205004 82 218 1.0 2.0 0.00 0.00 0.00 41 1024.9
20260905204504 82 223 1.0 2.0 0.00 0.00 0.00 42 1024.8
20260905204025 82 227 0.0 2.0 0.00 0.00 0.00 41 1024.7
20260905203504 83 223 0.0 2.0 0.00 0.00 0.00 40 1024.8
20260905203025 84 195 1.0 2.0 0.00 0.00 0.00 39 1024.9
20260905202504 84 194 1.0 2.0 0.00 0.00 0.00 39 1024.7
20260905202004 84 213 1.0 2.0 0.00 0.00 0.00 38 1024.8
20260905201503 84 217 1.0 2.0 0.00 0.00 0.00 38 1024.6
20260905201004 85 217 0.0 2.0 0.00 0.00 0.00 37 1024.5
20260905200504 85 193 1.0 2.0 0.00 0.00 0.00 36 1024.5
20260905200004 85 195 1.0 2.0 0.00 0.00 0.00 36 1024.4
20260905195504 85 213 1.0 2.0 0.00 0.00 0.00 37 1024.5
20260905195004 85 214 1.0 2.0 0.00 0.00 0.00 37 1024.4
20260905194504 85 213 0.0 1.0 0.00 0.00 0.00 37 1024.2
20260905194025 84 223 0.0 1.0 0.00 0.00 0.00 38 1024.1
20260905193524 84 223 0.0 1.0 0.00 0.00 0.00 38 1024.4
20260905193004 85 224 0.0 1.0 0.00 0.00 0.00 37 1024.0
20260905192504 85 218 0.0 1.0 0.00 0.00 0.00 36 1024.0
20260905192003 86 218 0.0 1.0 0.00 0.00 0.00 35 1023.7
20260905191504 86 215 0.0 1.0 0.00 0.00 0.00 35 1023.6
20260905191004 87 218 1.0 2.0 0.00 0.00 0.00 35 1023.4
20260905190504 87 224 1.0 2.0 0.00 0.00 0.00 34 1023.3
20260905190004 87 228 1.0 1.0 0.00 0.00 0.00 34 1023.3
20260905185504 87 227 1.0 2.0 0.00 0.00 0.00 33 1023.4
20260905185004 87 223 1.0 2.0 0.00 0.00 0.00 34 1023.4
20260905184503 87 222 1.0 1.0 0.00 0.00 0.00 34 1023.4
20260905184004 88 225 1.0 1.0 0.00 0.00 0.00 34 1023.2
20260905183504 88 225 1.0 1.0 0.00 0.00 0.00 33 1023.3
20260905183004 88 224 1.0 1.0 0.00 0.00 0.00 33 1023.1
20260905182525 88 222 0.0 1.0 0.00 0.00 0.00 34 1023.0
20260905182004 88 220 0.0 1.0 0.00 0.00 0.00 34 1023.0
20260905181504 89 219 1.0 2.0 0.00 0.00 0.00 34 1023.2
20260905181003 89 219 0.0 2.0 0.00 0.00 0.00 34 1023.1
20260905180504 89 221 0.0 1.0 0.00 0.00 0.00 33 1023.1
20260905180004 90 232 0.0 1.0 0.00 0.00 0.00 33 1023.2
20260905175504 91 235 1.0 2.0 0.00 0.00 0.00 32 1023.1
20260905175003 91 226 1.0 3.0 0.00 0.00 0.00 32 1023.1
20260905174504 92 222 1.0 3.0 0.00 0.00 0.00 33 1023.2
20260905174024 92 233 1.0 3.0 0.00 0.00 0.00 32 1023.1
20260905173503 92 236 1.0 4.0 0.00 0.00 0.00 32 1023.1
20260905173004 93 238 1.0 7.0 0.00 0.00 0.00 33 1022.9
20260905172504 94 246 1.0 7.0 0.00 0.00 0.00 33 1023.0
20260905172004 94 241 1.0 7.0 0.00 0.00 0.00 31 1023.1
20260905171503 94 236 2.0 7.0 0.00 0.00 0.00 31 1022.9
20260905171004 95 230 2.0 6.0 0.00 0.00 0.00 30 1023.0
20260905170525 95 230 2.0 10.0 0.00 0.00 0.00 29 1022.8
20260905170003 95 267 3.0 10.0 0.00 0.00 0.00 29 1022.9
20260905165525 96 278 3.0 9.0 0.00 0.00 0.00 29 1022.8
20260905165003 96 252 2.0 9.0 0.00 0.00 0.00 28 1022.7
20260905164503 97 142 2.0 6.0 0.00 0.00 0.00 28 1022.7
20260905164004 98 182 2.0 7.0 0.00 0.00 0.00 28 1022.7
20260905163503 97 259 1.0 7.0 0.00 0.00 0.00 28 1022.7
20260905163003 98 255 1.0 6.0 0.00 0.00 0.00 26 1022.5
20260905162525 98 277 2.0 9.0 0.00 0.00 0.00 27 1022.7
20260905162004 98 287 3.0 13.0 0.00 0.00 0.00 26 1022.5
20260905161503 99 265 2.0 13.0 0.00 0.00 0.00 26 1022.5
20260905161024 99 56 2.0 6.0 0.00 0.00 0.00 26 1022.7
20260905160503 99 295 2.0 10.0 0.00 0.00 0.00 25 1022.4
20260905160004 100 293 3.0 10.0 0.00 0.00 0.00 25 1022.3
20260905155503 99 300 3.0 10.0 0.00 0.00 0.00 26 1022.3
20260905155003 99 295 4.0 11.0 0.00 0.00 0.00 26 1022.4
20260905154503 99 298 4.0 11.0 0.00 0.00 0.00 25 1022.4
20260905154004 100 298 3.0 9.0 0.00 0.00 0.00 25 1022.3
20260905153503 100 301 3.0 9.0 0.00 0.00 0.00 25 1022.2
20260905153003 100 283 3.0 10.0 0.00 0.00 0.00 25 1022.3
20260905152504 100 280 2.0 10.0 0.00 0.00 0.00 25 1022.3
20260905152003 101 236 2.0 7.0 0.00 0.00 0.00 25 1022.3
20260905151503 101 249 1.0 4.0 0.00 0.00 0.00 24 1022.3
20260905151004 102 251 1.0 3.0 0.00 0.00 0.00 24 1022.7
20260905150504 101 205 1.0 6.0 0.00 0.00 0.00 24 1022.4
20260905150025 101 124 1.0 10.0 0.00 0.00 0.00 24 1022.7
20260905145504 100 70 2.0 10.0 0.00 0.00 0.00 24 1022.5
20260905145004 100 65 2.0 6.0 0.00 0.00 0.00 25 1022.8
20260905144503 100 71 2.0 6.0 0.00 0.00 0.00 26 1022.7
20260905144003 101 260 2.0 6.0 0.00 0.00 0.00 25 1022.7
20260905143525 101 284 2.0 6.0 0.00 0.00 0.00 24 1022.5
20260905143004 102 276 2.0 6.0 0.00 0.00 0.00 23 1022.7
20260905142504 103 232 1.0 4.0 0.00 0.00 0.00 23 1022.9
20260905142004 101 231 1.0 6.0 0.00 0.00 0.00 23 1023.0
20260905141503 101 244 1.0 6.0 0.00 0.00 0.00 23 1023.1